This is the latest recevied weather packets stored in our database for station/object SR3WXA. If no packets are shown the sender has not sent any weather packets the latest 10 day(s).
| Time | Temp. | Humidity | Pressure | Rain* | Wind** | Luminosity | Snow |
|---|---|---|---|---|---|---|---|
| 1778054358 | 13.89° C | 83% | 1005.1 hPa | 0 mm | - | 594 W/m² | - |
| 1778054325 | 13.89° C | 83% | 1005.1 hPa | 0 mm | - | 594 W/m² | - |
| 1778054025 | 13.33° C | 85% | 1005.1 hPa | 0 mm | - | 555 W/m² | - |
| 1778053726 | 12.78° C | 87% | 1005.2 hPa | 0 mm | - | 536 W/m² | - |
| 1778053457 | 12.78° C | 86% | 1005.3 hPa | 0 mm | - | 529 W/m² | - |
| 1778053425 | 12.78° C | 86% | 1005.3 hPa | 0 mm | - | 529 W/m² | - |
| 1778053125 | 12.22° C | 86% | 1005.3 hPa | 0 mm | - | 171 W/m² | - |
| 1778052825 | 12.22° C | 87% | 1005.3 hPa | 0 mm | - | 199 W/m² | - |
| 1778052525 | 12.22° C | 87% | 1005.2 hPa | 0 mm | - | 350 W/m² | - |
| 1778052271 | 12.22° C | 87% | 1005.3 hPa | 0 mm | - | 236 W/m² | - |
| 1778052225 | 12.22° C | 87% | 1005.3 hPa | 0 mm | - | 236 W/m² | - |
| 1778051926 | 12.22° C | 88% | 1005.6 hPa | 0 mm | - | 142 W/m² | - |
| 1778051680 | 12.22° C | 88% | 1005.5 hPa | 0 mm | - | 118 W/m² | - |
| 1778051625 | 12.22° C | 88% | 1005.5 hPa | 0 mm | - | 118 W/m² | - |
| 1778051325 | 12.22° C | 88% | 1005.5 hPa | 0 mm | - | 141 W/m² | - |
| 1778051025 | 12.22° C | 89% | 1005.5 hPa | 0 mm | - | 211 W/m² | - |
| 1778050759 | 11.67° C | 89% | 1005.2 hPa | 0 mm | - | 220 W/m² | - |
| 1778050726 | 11.67° C | 89% | 1005.2 hPa | 0 mm | - | 220 W/m² | - |
| 1778050457 | 11.67° C | 89% | 1005.2 hPa | 0 mm | - | 172 W/m² | - |
| 1778050425 | 11.67° C | 89% | 1005.2 hPa | 0 mm | - | 172 W/m² | - |
| 1778050157 | 11.67° C | 89% | 1005.3 hPa | 0 mm | - | 186 W/m² | - |
| 1778050125 | 11.67° C | 89% | 1005.3 hPa | 0 mm | - | 186 W/m² | - |
| 1778049826 | 11.67° C | 89% | 1005.2 hPa | 0 mm | - | 192 W/m² | - |
| 1778049374 | 11.67° C | 89% | 1005.1 hPa | 0 mm | - | 79 W/m² | - |
| 1778049074 | 11.67° C | 89% | 1005.1 hPa | 0 mm | - | 65 W/m² | - |
* Rain latest hour (hover to see other rain measurements)
** Current wind speed in m/s (hover to see current wind gust speed)